Home   Weather   Haugesund   Past weeks

Flag for Norway Past Weather in Haugesund, Norway — Yesterday and Last 2 Weeks

48 °F

Broken clouds.

Feels Like: 42 °F
Forecast: 49 / 53 °F
Wind: 17 mph from Southeast

Location: Karmoy

Current Time: Oct 26, 2016 at 9:32:58 AM

Latest Report: Oct 26, 2016 at 8:50 AM

Visibility: N/A

Pressure: 30.09 "Hg

Humidity: 82%

Dew Point: 43 °F

Location of HaugesundLocation

Past Weather in Haugesund — Graph


Haugesund Temperature Yesterday

Maximum temperature yesterday: 50 °F (at 12:50 PM)
Minimum temperature yesterday: 32 °F (at 3:20 AM)
Average temperature yesterday: 42 °F

High & Low Weather Summary for the Past Weeks

High57 °F (Oct 20, 2:50 PM)100% (Oct 11, 9:20 AM)30.54 "Hg (Oct 11, 9:20 AM)
Low30 °F (Oct 14, 8:20 AM)28% (Oct 15, 4:50 PM)29.92 "Hg (Oct 18, 6:50 AM)
Average47 °F70%30.22 "Hg
* Reported Oct 11 7:20 AM — Oct 26 7:50 AM, Haugesund, Weather by CustomWeather, © 2016

Note: Actual official high and low records may vary slightly from our data, if they occured in-between our weather recording intervals... More about our weather records


Haugesund Weather History for the Previous 24 Hours

Scroll right to see more
Time TempWeatherWind HumidityBarometerVisibility
7:50 AM
Wed, Oct 26
48 °FSprinkles. Passing clouds.18 mph82%30.12 "HgN/A
7:20 AM46 °FPartly cloudy.15 mph87%30.15 "HgN/A
6:50 AM46 °FPartly cloudy.16 mph82%30.15 "HgN/A
6:20 AM46 °FPartly cloudy.18 mph87%30.15 "HgN/A
5:50 AM46 °FPartly cloudy.17 mph82%30.15 "HgN/A
5:20 AM46 °FPassing clouds.16 mph82%30.18 "HgN/A
4:50 AM46 °FOvercast.15 mph82%30.18 "HgN/A
4:20 AM46 °FMostly cloudy.14 mph82%30.18 "HgN/A
3:50 AM46 °FOvercast.15 mph82%30.18 "HgN/A
3:20 AM46 °FMostly cloudy.15 mph76%30.21 "HgN/A
2:50 AM46 °FOvercast.14 mph76%30.21 "HgN/A
2:20 AM46 °FPassing clouds.16 mph76%30.21 "HgN/A
1:50 AM46 °FPartly cloudy.14 mph76%30.21 "HgN/A
1:20 AM46 °FPassing clouds.14 mph76%30.24 "HgN/A
12:50 AM46 °FPassing clouds.14 mph76%30.24 "HgN/A
12:20 AM46 °FPassing clouds.13 mph76%30.24 "HgN/A
11:50 PM
Tue, Oct 25
46 °FOvercast.12 mph76%30.24 "HgN/A
11:20 PM46 °FOvercast.13 mph76%30.27 "HgN/A
10:50 PM46 °FPassing clouds.12 mph76%30.27 "HgN/A
10:20 PM45 °FPassing clouds.9 mph76%30.27 "HgN/A
9:50 PM46 °FPassing clouds.9 mph66%30.27 "HgN/A
9:20 PM46 °FPassing clouds.9 mph66%30.27 "HgN/A
8:50 PM46 °FPassing clouds.9 mph66%30.27 "HgN/A
8:20 PM46 °FPassing clouds.10 mph71%30.27 "HgN/A
7:50 PM45 °FPassing clouds.10 mph81%30.27 "HgN/A
7:20 PM45 °FPassing clouds.9 mph76%30.27 "HgN/A
6:50 PM41 °FPassing clouds.8 mph81%30.27 "HgN/A
6:20 PM45 °FPassing clouds.10 mph76%30.27 "HgN/A
5:50 PM45 °FPartly sunny.8 mph76%30.27 "HgN/A
5:20 PM46 °FScattered clouds.9 mph71%30.27 "HgN/A
4:50 PM48 °FPassing clouds.13 mph66%30.27 "HgN/A
4:20 PM48 °FPassing clouds.12 mph62%30.27 "HgN/A
3:50 PM48 °FSunny.10 mph62%30.27 "Hg10 mi
3:20 PM48 °FSunny.12 mph66%30.27 "Hg10 mi
2:50 PM50 °FScattered clouds.12 mph58%30.27 "HgN/A
2:20 PM50 °FPassing clouds.10 mph62%30.27 "HgN/A
1:50 PM50 °FPassing clouds.8 mph62%30.27 "HgN/A
1:20 PM50 °FPassing clouds.8 mph67%30.27 "HgN/A
12:50 PM50 °FSunny.8 mph71%30.27 "Hg10 mi
12:20 PM48 °FSunny.9 mph76%30.27 "Hg10 mi
11:50 AM48 °FSunny.7 mph76%30.27 "Hg10 mi
11:20 AM46 °FSunny.8 mph76%30.27 "Hg10 mi
10:50 AM43 °FSunny.6 mph87%30.27 "Hg10 mi
10:20 AM39 °FSunny.8 mph87%30.27 "Hg10 mi
9:50 AM41 °FSunny.9 mph87%30.27 "Hg10 mi
9:20 AM36 °FSunny.6 mph87%30.27 "Hg10 mi
Weather by CustomWeather, © 2016

See weather overviewHow to use our weather pages